Ogden Hill AFB, UT

10:01 AM MDT on September 26, 2017 (GMT -0600)
Hill Air Force Base

Weather History for KHIF - January, 2014

Change the Weather History Date:

Thursday, January 9, 2014

  Actual Average Record
Temperature  
Mean Temperature 28 °F -  
Max Temperature 32 °F 34 °F 50 °F (2005)
Min Temperature 23 °F 22 °F 12 °F (2011)
Degree Days  
Heating Degree Days 38    
Moisture  
Dew Point 27 °F    
Average Humidity 94    
Maximum Humidity 100    
Minimum Humidity 74    
Precipitation  
Precipitation 0.11 in - - ()
Snow  
Snow 0.00 in - - ()
Snow Depth 12.00 in    
Sea Level Pressure  
Sea Level Pressure 30.00 in    
Wind  
Wind Speed 7 mph (SSE)    
Max Wind Speed 17 mph    
Max Gust Speed 21 mph    
Visibility 4 miles    
Events Fog , Snow    
Averages and records for this station are not official NWS values.
T = Trace of Precipitation, MM = Missing Value Source: NWS Daily Summary

Daily Weather History Graph

Daily Weather History Graph

Search for Another Location

Airport or City:

Trip Planner

Search our weather history database for the weather conditions in past years. The results will help you decide how hot, cold, wet, or windy it might be!

Date:

Astronomy

Jan. 09, 2014 Rise Set
Actual Time 7:52 AM MST 5:17 PM MST
Civil Twilight 7:22 AM MST 5:48 PM MST
Nautical Twilight 6:47 AM MST 6:22 PM MST
Astronomical Twilight 6:14 AM MST 6:55 PM MST
Moon 12:48 PM MST (1/9) 2:02 AM MST (1/9)
Length of Visible Light 10h 26m
Length of Day
9h 24m
Waxing Gibbous, 66% of the Moon is Illuminated
Jan 9
Waxing Gibbous
Jan 15
Full
Jan 23
Last Quarter
Jan 30
New
Feb 6
First Quarter

Hourly Weather History & Observations

Time (MST) Temp. Windchill Dew Point Humidity Pressure Visibility Wind Dir Wind Speed Gust Speed Precip Events Conditions
12:08 AM 28.4 °F 22.2 °F 28.4 °F 100% 30.04 in 5.0 mi SSE 5.8 mph - N/A   Partly Cloudy
12:18 AM 28.4 °F 22.2 °F 26.6 °F 93% 30.05 in 4.0 mi WSW 5.8 mph - N/A   Scattered Clouds
12:26 AM 28.4 °F 22.2 °F 28.4 °F 100% 30.05 in 2.5 mi WSW 5.8 mph - N/A   Scattered Clouds
12:31 AM 28.4 °F 23.3 °F 28.4 °F 100% 30.05 in 0.8 mi SW 4.6 mph - N/A   Mostly Cloudy
12:36 AM 28.4 °F 23.3 °F 28.4 °F 100% 30.05 in 0.2 mi SW 4.6 mph - N/A Fog Light Freezing Fog
12:41 AM 28.4 °F 24.6 °F 28.4 °F 100% 30.05 in 0.2 mi SSW 3.5 mph - N/A Fog Light Freezing Fog
12:58 AM 29.1 °F 24.1 °F 28.4 °F 97% 30.10 in 0.2 mi SSE 4.6 mph - N/A Fog Light Freezing Fog
1:33 AM 26.6 °F 22.6 °F 26.6 °F 100% 30.02 in 0.2 mi SE 3.5 mph - N/A Fog Light Freezing Fog
1:43 AM 28.4 °F 24.6 °F 26.6 °F 93% 30.02 in 0.2 mi ESE 3.5 mph - N/A Fog Light Freezing Fog
1:48 AM 26.6 °F 22.6 °F 26.6 °F 100% 30.02 in 0.2 mi ESE 3.5 mph - N/A Fog Light Freezing Fog
1:58 AM 27.7 °F 23.8 °F 27.3 °F 99% 30.05 in 0.2 mi East 3.5 mph - N/A Fog Light Freezing Fog
2:03 AM 26.6 °F 21.2 °F 26.6 °F 100% 30.00 in 0.2 mi East 4.6 mph - N/A Fog Light Freezing Fog
2:08 AM 26.6 °F 19.1 °F 26.6 °F 100% 30.01 in 0.2 mi East 6.9 mph - N/A Fog Light Freezing Fog
2:10 AM 26.6 °F 19.1 °F 26.6 °F 100% 30.00 in 0.2 mi East 6.9 mph - N/A Fog Light Freezing Fog
2:15 AM 26.6 °F 19.1 °F 26.6 °F 100% 30.01 in 0.2 mi ESE 6.9 mph - N/A Fog Light Freezing Fog
2:20 AM 26.6 °F 20.0 °F 26.6 °F 100% 30.01 in 0.2 mi ESE 5.8 mph - N/A Fog Light Freezing Fog
2:25 AM 26.6 °F 22.6 °F 26.6 °F 100% 30.02 in 1.5 mi ESE 3.5 mph - N/A   Mostly Cloudy
2:30 AM 26.6 °F 21.2 °F 26.6 °F 100% 30.02 in 6.0 mi ESE 4.6 mph - N/A   Mostly Cloudy
2:58 AM 27.9 °F 22.6 °F 27.1 °F 97% 30.05 in 8.0 mi SE 4.6 mph - N/A   Overcast
3:58 AM 29.7 °F 22.0 °F 28.4 °F 95% 30.02 in 9.0 mi SSE 8.1 mph - N/A   Overcast
4:23 AM 28.4 °F 20.4 °F 26.6 °F 93% 29.98 in 8.0 mi South 8.1 mph - N/A   Overcast
4:53 AM 28.4 °F 19.7 °F 26.6 °F 93% 29.96 in 4.0 mi SE 9.2 mph - N/A   Mostly Cloudy
4:58 AM 28.4 °F 21.2 °F 27.1 °F 95% 30.00 in 4.0 mi SE 6.9 mph - N/A   Mostly Cloudy
5:18 AM 28.4 °F 22.2 °F 26.6 °F 93% 29.95 in 5.0 mi East 5.8 mph - N/A   Overcast
5:58 AM 29.1 °F 23.0 °F 27.9 °F 95% 29.98 in 8.0 mi SSE 5.8 mph - N/A   Mostly Cloudy
6:08 AM 30.2 °F 22.6 °F 28.4 °F 93% 29.94 in 9.0 mi East 8.1 mph - N/A   Scattered Clouds
6:28 AM 28.4 °F 24.6 °F 26.6 °F 93% 29.94 in 10.0 mi SSE 3.5 mph - N/A   Mostly Cloudy
6:38 AM 30.2 °F 25.4 °F 28.4 °F 93% 29.94 in 10.0 mi SSW 4.6 mph - N/A Snow Light Snow
6:43 AM 32.0 °F 23.6 °F 28.4 °F 87% 29.94 in 10.0 mi SSW 10.4 mph - N/A Snow Light Snow
6:49 AM 32.0 °F 23.0 °F 26.6 °F 80% 29.94 in 10.0 mi WSW 11.5 mph - N/A   Scattered Clouds
6:58 AM 30.2 °F 23.4 °F 27.1 °F 88% 29.98 in 8.0 mi SW 6.9 mph - 0.00 in   Partly Cloudy
7:15 AM 30.2 °F 22.6 °F 28.4 °F 93% 29.95 in 3.0 mi SW 8.1 mph - N/A Snow Light Snow
7:34 AM 30.2 °F 21.9 °F 26.6 °F 86% 29.95 in 1.5 mi ESE 9.2 mph - N/A Snow Light Snow
7:49 AM 30.2 °F 21.9 °F 28.4 °F 93% 29.94 in 0.8 mi ESE 9.2 mph - N/A Snow Light Snow
7:58 AM 29.8 °F 21.5 °F 28.0 °F 93% 29.98 in 1.5 mi East 9.2 mph - 0.00 in Snow Light Snow
8:16 AM 30.2 °F 22.6 °F 28.4 °F 93% 29.94 in 0.8 mi SE 8.1 mph - N/A Snow Light Snow
8:33 AM 32.0 °F 23.0 °F 32.0 °F 100% 29.94 in 0.5 mi SSE 11.5 mph - N/A Snow Snow
8:58 AM 32.7 °F 25.0 °F 32.0 °F 97% 29.99 in 0.5 mi South 9.2 mph - 0.01 in Snow Snow
9:13 AM 32.0 °F 22.5 °F 32.0 °F 100% 29.95 in 0.5 mi South 12.7 mph - N/A Snow Snow
9:58 AM 32.2 °F 23.2 °F 31.5 °F 97% 29.98 in 0.8 mi South 11.5 mph - 0.03 in Snow Light Snow
10:15 AM 32.0 °F 21.2 °F 32.0 °F 100% 29.94 in 0.2 mi SSE 16.1 mph - N/A Snow Heavy Snow
10:21 AM 32.0 °F 21.6 °F 32.0 °F 100% 29.94 in 0.5 mi SSE 15.0 mph - N/A Snow Snow
10:30 AM 32.0 °F 21.6 °F 32.0 °F 100% 29.94 in 1.0 mi SSE 15.0 mph - N/A Snow Light Snow
10:58 AM 32.0 °F 22.1 °F 32.0 °F 100% 29.98 in 0.8 mi South 13.8 mph - 0.01 in Snow Light Snow
11:58 AM 32.0 °F 21.2 °F 32.0 °F 100% 29.96 in 0.5 mi South 16.1 mph - 0.00 in Snow Snow
12:09 PM 32.0 °F 21.6 °F 32.0 °F 100% 29.92 in 0.5 mi South 15.0 mph - N/A Snow Snow
12:58 PM 32.4 °F 25.3 °F 31.8 °F 98% 29.96 in 0.5 mi SW 8.1 mph - 0.02 in Snow Snow
1:03 PM 32.0 °F 20.8 °F 32.0 °F 100% 29.93 in 0.1 mi West 17.3 mph 20.7 mph N/A Snow Heavy Snow
1:32 PM 30.2 °F 19.8 °F 28.4 °F 93% 29.93 in 0.5 mi WNW 13.8 mph - N/A Snow Snow
1:58 PM 30.2 °F 23.4 °F 28.4 °F 93% 29.99 in 0.8 mi NNW 6.9 mph - 0.03 in Snow Light Snow
2:24 PM 30.2 °F 24.3 °F 28.4 °F 93% 29.94 in 2.0 mi North 5.8 mph - N/A Snow Light Snow
2:43 PM 30.2 °F 23.4 °F 28.4 °F 93% 29.92 in 10.0 mi East 6.9 mph - N/A   Mostly Cloudy
2:58 PM 29.7 °F 26.1 °F 27.9 °F 93% 29.97 in 10.0 mi South 3.5 mph - 0.01 in   Mostly Cloudy
4:31 PM 28.4 °F 18.0 °F 28.4 °F 100% 29.97 in 2.0 mi South 12.7 mph - N/A   Scattered Clouds
4:49 PM 28.4 °F 18.5 °F 28.4 °F 100% 29.99 in 3.0 mi South 11.5 mph - N/A   Mostly Cloudy
4:58 PM 28.6 °F 18.7 °F 28.0 °F 98% 30.06 in 4.0 mi South 11.5 mph - N/A   Overcast
5:23 PM 26.6 °F 16.8 °F 26.6 °F 100% 30.00 in 10.0 mi South 10.4 mph - N/A   Scattered Clouds
5:58 PM 26.8 °F 15.9 °F 25.5 °F 95% 30.04 in 10.0 mi South 12.7 mph - N/A   Scattered Clouds
6:58 PM 23.9 °F 13.5 °F 20.3 °F 86% 30.06 in 10.0 mi SW 10.4 mph - N/A   Partly Cloudy
7:58 PM 25.0 °F 14.8 °F 20.7 °F 84% 30.09 in 10.0 mi SSE 10.4 mph - N/A   Clear
8:58 PM 25.5 °F 18.7 °F 19.6 °F 78% 30.09 in 10.0 mi SSE 5.8 mph - N/A   Clear
9:58 PM 24.1 °F 17.0 °F 19.2 °F 82% 30.08 in 10.0 mi SSE 5.8 mph - N/A   Clear
10:23 PM 23.0 °F 14.7 °F 17.6 °F 80% 30.03 in 10.0 mi SSE 6.9 mph - N/A   Mostly Cloudy
10:58 PM 24.6 °F 17.7 °F 19.2 °F 80% 30.10 in 10.0 mi SSE 5.8 mph - N/A   Overcast
11:19 PM 26.6 °F 19.1 °F 19.4 °F 74% 30.04 in 10.0 mi SW 6.9 mph - N/A   Overcast
11:23 PM 26.6 °F 16.8 °F 19.4 °F 74% 30.04 in 10.0 mi South 10.4 mph - N/A Snow Light Snow
11:53 PM 28.4 °F 20.4 °F 21.2 °F 74% 30.03 in 10.0 mi SSE 8.1 mph - N/A Snow Light Snow
11:58 PM 27.3 °F 18.4 °F 20.5 °F 75% 30.07 in 10.0 mi South 9.2 mph - 0.00 in Snow Light Snow